Yuma MCAS, AZ

8:24 PM MST on January 20, 2018 (GMT -0700)
Yuma Marine Corps Air Station

Weather History for KNYL - March, 2012

Change the Weather History Date:

Wednesday, March 7, 2012

  Actual Average Record
Temperature  
Mean Temperature 56 °F 66 °F  
Max Temperature 64 °F 78 °F 93 °F (1957)
Min Temperature 47 °F 53 °F 36 °F (1931)
Degree Days  
Heating Degree Days 9 2  
Month to date heating degree days 25 15  
Since 1 July heating degree days 654 638  
Cooling Degree Days 0 3  
Month to date cooling degree days 11 17  
Year to date cooling degree days 24 53  
Growing Degree Days 6 (Base 50)    
Moisture  
Dew Point 12 °F    
Average Humidity 28    
Maximum Humidity 48    
Minimum Humidity 7    
Precipitation  
Precipitation 0.00 in 0.02 in 0.89 in (2010)
Month to date precipitation 0.00 0.09  
Year to date precipitation 0.03 0.85  
Sea Level Pressure  
Sea Level Pressure 29.97 in    
Wind  
Wind Speed 11 mph (NNW)    
Max Wind Speed 25 mph    
Max Gust Speed 30 mph    
Visibility 10 miles    
Events      
T = Trace of Precipitation, MM = Missing Value Source: NWS Daily Summary

Daily Weather History Graph

Daily Weather History Graph

Search for Another Location

Airport or City:

Trip Planner

Search our weather history database for the weather conditions in past years. The results will help you decide how hot, cold, wet, or windy it might be!

Date:

Astronomy

Mar. 07, 2012 Rise Set
Actual Time 6:58 AM MST 6:40 PM MST
Civil Twilight 6:33 AM MST 7:05 PM MST
Nautical Twilight 6:05 AM MST 7:34 PM MST
Astronomical Twilight 5:36 AM MST 8:02 PM MST
Moon 6:20 PM MST (3/7) 6:10 AM MST (3/7)
Length of Visible Light 12h 31m
Length of Day
11h 42m
Waxing Gibbous, 99% of the Moon is Illuminated
Mar 7
Waxing Gibbous
Mar 8
Full
Mar 14
Last Quarter
Mar 22
New
Mar 30
First Quarter

Hourly Weather History & Observations

Time (MST) Temp. Dew Point Humidity Pressure Visibility Wind Dir Wind Speed Gust Speed Precip Events Conditions
12:55 AM 57.9 °F 28.9 °F 33% 29.73 in 10.0 mi NNW 16.1 mph 27.6 mph N/A   Clear
1:55 AM 57.0 °F 28.9 °F 34% 29.77 in 10.0 mi NNW 15.0 mph 20.7 mph N/A   Clear
2:55 AM 55.0 °F 30.9 °F 40% 29.78 in 10.0 mi NW 17.3 mph 25.3 mph N/A   Clear
3:55 AM 54.0 °F 32.0 °F 43% 29.79 in 10.0 mi NNW 11.5 mph - N/A   Clear
4:55 AM 52.0 °F 32.0 °F 47% 29.81 in 10.0 mi NNW 8.1 mph - N/A   Clear
5:55 AM 52.0 °F 32.0 °F 47% 29.84 in 10.0 mi NNW 6.9 mph - N/A   Partly Cloudy
6:55 AM 52.0 °F 16.0 °F 24% 29.87 in 10.0 mi NNW 12.7 mph 18.4 mph N/A   Scattered Clouds
7:55 AM 53.1 °F 16.0 °F 23% 29.91 in 10.0 mi NNW 15.0 mph 24.2 mph N/A   Scattered Clouds
8:55 AM 55.0 °F 10.0 °F 17% 29.95 in 10.0 mi North 15.0 mph 27.6 mph N/A   Scattered Clouds
9:55 AM 55.9 °F 7.0 °F 14% 29.98 in 10.0 mi North 17.3 mph 23.0 mph N/A   Mostly Cloudy
10:55 AM 59.0 °F 3.9 °F 11% 30.01 in 10.0 mi NNW 18.4 mph - N/A   Mostly Cloudy
11:55 AM 61.0 °F -0.0 °F 9% 30.03 in 10.0 mi North 17.3 mph 20.7 mph N/A   Partly Cloudy
12:55 PM 61.0 °F -4.0 °F 7% 30.03 in 10.0 mi North 15.0 mph - N/A   Clear
1:55 PM 62.1 °F -2.9 °F 7% 30.03 in 10.0 mi North 12.7 mph 21.9 mph N/A   Clear
2:55 PM 63.0 °F -2.9 °F 7% 30.02 in 10.0 mi North 9.2 mph - N/A   Clear
3:55 PM 63.0 °F -2.0 °F 7% 30.03 in 10.0 mi NNE 11.5 mph 18.4 mph N/A   Clear
4:55 PM 63.0 °F -2.0 °F 7% 30.03 in 10.0 mi NW 11.5 mph - N/A   Clear
5:55 PM 62.1 °F -0.9 °F 8% 30.04 in 10.0 mi North 11.5 mph - N/A   Clear
6:55 PM 60.1 °F 3.9 °F 11% 30.06 in 10.0 mi North 8.1 mph - N/A   Clear
7:55 PM 57.9 °F 3.9 °F 11% 30.08 in 10.0 mi NNW 4.6 mph - N/A   Clear
8:55 PM 53.1 °F 15.1 °F 22% 30.09 in 10.0 mi West 4.6 mph - N/A   Clear
9:55 PM 52.0 °F 15.1 °F 23% 30.11 in 10.0 mi West 3.5 mph - N/A   Clear
10:55 PM 50.0 °F 17.1 °F 27% 30.12 in 10.0 mi Calm Calm - N/A   Clear
11:55 PM 48.0 °F 19.0 °F 32% 30.12 in 10.0 mi West 5.8 mph - N/A   Clear